Location: Armstrong
(40.9123°N, 82.0110°W)
Time: 23:41:57
(UTC+00:00)

Radarsat Rocket - Pass Details

Date: 29 October 2020
Orbit: 933 x 1492 km, 100.6° (Epoch: 29 November)

Event Time Altitude Azimuth Distance (km) Brightness Sun altitude
Rises 22:47:14 0° 167° (SSE) 3,759 7.1 -4.5°
Reaches altitude 10° 22:49:48 10° 169° (S) 2,756 6.4 -5.0°
Maximum altitude 22:55:51 75° 254° (WSW) 983 4.3 -6.1°
Drops below altitude 10° 23:01:41 10° 341° (NNW) 2,650 6.4 -7.2°
Sets 23:04:06 0° 343° (NNW) 3,605 7.1 -7.6°
